CW9648 Weather Reports


time (UTC)temp
C
wind
direction
speed
KPH
gust
KPH
rain 1hr
cm
rain 24hr
cm
rain mn
cm
humidity
%
barometer
mb
20260504014004 17 0 0.0 0.0 0.00 0.03 0.03 81 1018.3
20260504013525 18 0 0.0 0.0 0.00 0.03 0.03 80 1018.3
20260504013004 18 0 0.0 0.0 0.00 0.03 0.03 79 1018.3
20260504012504 18 0 0.0 0.0 0.00 0.03 0.03 76 1018.1
20260504012004 18 0 0.0 0.0 0.00 0.03 0.03 77 1018.1
20260504011504 19 0 0.0 0.0 0.00 0.03 0.03 78 1018.1
20260504011004 20 0 0.0 0.0 0.00 0.03 0.03 77 1018.1
20260504010525 20 0 0.0 0.0 0.00 0.03 0.03 76 1018.1
20260504010004 20 0 0.0 0.0 0.00 0.03 0.03 73 1018.1
20260504005504 20 0 0.0 0.0 0.00 0.03 0.03 72 1018.2
20260504005004 21 0 0.0 0.0 0.00 0.03 0.03 70 1018.2
20260504004525 21 0 0.0 0.0 0.00 0.03 0.03 74 1018.3
20260504004004 21 0 0.0 0.0 0.00 0.03 0.03 73 1018.1
20260504003504 22 0 0.0 0.0 0.00 0.03 0.03 70 1018.1
20260504003004 22 0 0.0 0.0 0.00 0.03 0.03 69 1018.1
20260504002525 22 0 0.0 0.0 0.00 0.03 0.03 66 1018.1
20260504002004 22 0 0.0 0.0 0.00 0.03 0.03 63 1018.2
20260504001504 23 180 0.0 1.6 0.00 0.03 0.03 61 1018.1
20260504000504 23 0 0.0 0.0 0.00 0.03 0.03 54 1018.2
20260504000004 23 0 0.0 0.0 0.00 0.03 0.03 54 1018.2
20260503235504 24 180 0.0 1.6 0.00 0.03 0.03 51 1018.2
20260503235004 24 177 0.0 4.8 0.00 0.03 0.03 50 1018.4
20260503234504 25 167 1.6 8.0 0.00 0.03 0.03 47 1018.4
20260503234004 25 169 1.6 8.0 0.00 0.03 0.03 47 1018.4
20260503233504 25 170 1.6 6.4 0.00 0.03 0.03 46 1018.4
20260503232504 25 167 3.2 6.4 0.00 0.03 0.03 46 1018.4
20260503232004 25 162 3.2 6.4 0.00 0.03 0.03 45 1018.4
20260503231504 26 162 3.2 6.4 0.00 0.03 0.03 45 1018.5
20260503231004 26 169 1.6 6.4 0.00 0.03 0.03 45 1018.6
20260503230504 26 176 1.6 8.0 0.00 0.03 0.03 46 1018.5
20260503230004 26 161 3.2 8.0 0.00 0.03 0.03 45 1018.5
20260503225503 26 156 3.2 8.0 0.00 0.03 0.03 42 1018.5
20260503225004 26 159 3.2 9.7 0.00 0.03 0.03 44 1018.5
20260503224504 27 176 3.2 9.7 0.00 0.03 0.03 42 1018.5
20260503224003 27 234 1.6 4.8 0.00 0.03 0.03 41 1018.6
20260503223504 27 223 1.6 4.8 0.00 0.03 0.03 41 1018.6
20260503223004 27 225 1.6 4.8 0.00 0.03 0.03 42 1018.6
20260503222504 27 228 1.6 6.4 0.00 0.03 0.03 41 1018.7
20260503222004 27 224 1.6 6.4 0.00 0.03 0.03 39 1018.8
20260503221504 27 4 1.6 4.8 0.00 0.03 0.03 40 1018.9
20260503221004 26 323 3.2 8.0 0.00 0.03 0.03 38 1018.9
20260503220504 27 284 3.2 8.0 0.00 0.03 0.03 37 1018.8
20260503220004 27 168 1.6 4.8 0.00 0.03 0.03 39 1018.9
20260503215504 27 237 3.2 6.4 0.00 0.03 0.03 40 1018.9
20260503215004 27 270 3.2 6.4 0.00 0.03 0.03 40 1019.0
20260503214504 27 239 1.6 6.4 0.00 0.03 0.03 38 1019.1
20260503214004 27 192 3.2 12.9 0.00 0.03 0.03 35 1019.1
20260503213503 27 177 3.2 12.9 0.00 0.03 0.03 35 1019.2
20260503213004 27 228 3.2 8.0 0.00 0.03 0.03 37 1019.2
20260503212504 27 261 1.6 6.4 0.00 0.03 0.03 38 1019.3
20260503212025 27 203 1.6 6.4 0.00 0.03 0.03 38 1019.4
20260503211504 27 179 3.2 6.4 0.00 0.03 0.03 39 1019.5
20260503211004 26 170 3.2 11.3 0.00 0.03 0.03 41 1019.7
20260503210503 27 162 4.8 11.3 0.00 0.03 0.03 43 1019.8
20260503210004 27 166 4.8 11.3 0.00 0.03 0.03 40 1019.9
20260503205504 27 178 3.2 12.9 0.00 0.03 0.03 41 1020.0
20260503205024 27 283 3.2 12.9 0.00 0.03 0.03 39 1020.1
20260503204503 27 213 3.2 11.3 0.00 0.03 0.03 40 1020.2
20260503204025 27 224 3.2 8.0 0.00 0.03 0.03 39 1020.3
20260503203504 27 220 3.2 8.0 0.00 0.03 0.03 40 1020.4
20260503203004 27 233 3.2 8.0 0.00 0.03 0.03 41 1020.5
20260503202503 27 315 4.8 14.5 0.00 0.03 0.03 46 1020.5
20260503202004 26 311 4.8 14.5 0.00 0.03 0.03 44 1020.6
20260503201504 26 255 3.2 14.5 0.00 0.03 0.03 42 1020.7
20260503201003 26 187 3.2 9.7 0.00 0.03 0.03 44 1020.8
20260503200504 26 200 3.2 9.7 0.00 0.03 0.03 44 1020.8
20260503200004 26 184 3.2 8.0 0.00 0.03 0.03 46 1020.9
20260503195504 26 98 4.8 8.0 0.00 0.03 0.03 47 1020.9
20260503195025 26 338 4.8 9.7 0.00 0.03 0.03 49 1021.0
20260503194503 25 3 3.2 11.3 0.00 0.03 0.03 48 1021.1
20260503194004 25 69 4.8 11.3 0.00 0.03 0.03 46 1021.2
20260503193503 25 291 3.2 11.3 0.00 0.03 0.03 46 1021.4
20260503193004 25 179 3.2 14.5 0.00 0.03 0.03 47 1021.3
20260503192504 26 270 3.2 14.5 0.00 0.03 0.03 45 1021.4
20260503192004 25 269 4.8 14.5 0.00 0.03 0.03 44 1021.6
20260503191504 26 226 3.2 9.7 0.00 0.03 0.03 44 1021.7
20260503191004 26 151 4.8 12.9 0.00 0.03 0.03 48 1021.7
20260503190525 25 158 4.8 12.9 0.00 0.03 0.03 48 1021.8
20260503190004 25 189 4.8 12.9 0.00 0.03 0.03 45 1021.9
20260503185503 26 149 4.8 11.3 0.00 0.03 0.03 46 1021.9
20260503185004 25 153 4.8 11.3 0.00 0.03 0.03 45 1022.0
20260503184504 26 205 3.2 9.7 0.00 0.03 0.03 44 1022.1
20260503184004 25 228 3.2 8.0 0.00 0.03 0.03 48 1022.0
20260503183504 25 251 3.2 8.0 0.00 0.03 0.03 47 1022.2
20260503183004 25 237 3.2 8.0 0.00 0.03 0.03 45 1022.3
20260503182524 25 180 3.2 8.0 0.00 0.03 0.03 46 1022.4
20260503182005 25 155 3.2 9.7 0.00 0.03 0.03 45 1022.4
20260503181505 25 153 4.8 11.3 0.00 0.03 0.03 46 1022.6
20260503181004 25 175 4.8 11.3 0.00 0.03 0.03 48 1022.7
20260503180503 25 243 4.8 9.7 0.00 0.03 0.03 47 1022.7
20260503180004 25 302 4.8 12.9 0.00 0.03 0.03 47 1022.7
20260503175503 25 302 4.8 12.9 0.00 0.03 0.03 43 1022.8
20260503175003 25 256 3.2 8.0 0.00 0.03 0.03 43 1022.9
20260503174503 25 204 3.2 6.4 0.00 0.03 0.03 48 1022.9
20260503174025 25 183 3.2 12.9 0.00 0.03 0.03 45 1022.9
20260503173503 24 203 3.2 12.9 0.00 0.03 0.03 47 1023.1
20260503173003 25 185 3.2 11.3 0.00 0.03 0.03 52 1023.1
20260503172504 25 207 3.2 9.7 0.00 0.03 0.03 49 1023.1
20260503172004 24 258 3.2 9.7 0.00 0.03 0.03 50 1023.2
20260503171504 24 256 3.2 11.3 0.00 0.03 0.03 53 1023.3
20260503171003 24 179 4.8 11.3 0.00 0.03 0.03 52 1023.4
20260503170503 24 186 4.8 12.9 0.00 0.03 0.03 53 1023.6
20260503151003 20 273 3.2 6.4 0.00 0.03 0.03 67 1023.8
20260503150503 20 187 3.2 9.7 0.00 0.03 0.03 67 1023.7
20260503131003 11 0 0.0 0.0 0.00 0.03 0.03 90 1023.4
20260503130503 11 0 0.0 0.0 0.00 0.03 0.03 90 1023.4
20260503110503 9 0 0.0 0.0 0.00 0.00 0.00 91 1022.3
20260503081503 10 0 0.0 0.0 0.00 0.03 0.00 92 1021.7
20260503081003 10 0 0.0 0.0 0.00 0.03 0.00 92 1021.6
20260503080503 10 0 0.0 0.0 0.00 0.03 0.00 92 1021.7
20260503072503 10 0 0.0 0.0 0.00 0.03 0.00 93 1021.5
20260503072003 10 0 0.0 0.0 0.00 0.03 0.00 93 1021.7
20260503071503 10 0 0.0 0.0 0.00 0.03 0.00 93 1021.7
20260503071003 10 0 0.0 0.0 0.00 0.03 0.00 93 1021.6
20260503070503 10 0 0.0 0.0 0.00 0.03 0.00 92 1021.7
20260503055024 11 0 0.0 0.0 0.00 0.03 0.00 93 1021.6
20260503054503 11 0 0.0 0.0 0.00 0.03 0.00 93 1021.6
20260503054003 11 0 0.0 0.0 0.00 0.03 0.00 93 1021.6
20260503053503 11 0 0.0 0.0 0.00 0.03 0.00 93 1021.6
20260503053024 11 0 0.0 0.0 0.00 0.03 0.00 93 1021.5
20260503052503 11 0 0.0 0.0 0.00 0.03 0.00 93 1021.6
20260503052024 11 0 0.0 0.0 0.00 0.03 0.00 93 1021.5
20260503051503 11 0 0.0 0.0 0.00 0.03 0.00 93 1021.5
20260503051003 11 0 0.0 0.0 0.00 0.03 0.00 93 1021.5
20260503044505 12 0 0.0 0.0 0.00 0.03 0.03 93 1021.7
20260503044028 12 0 0.0 0.0 0.00 0.03 0.03 93 1021.6
20260503043504 12 0 0.0 0.0 0.00 0.03 0.03 93 1021.5
20260503043004 12 0 0.0 0.0 0.00 0.03 0.03 93 1021.5
20260503042504 12 0 0.0 0.0 0.00 0.03 0.03 93 1021.6
20260503042004 12 0 0.0 0.0 0.00 0.03 0.03 93 1021.5
20260503041504 12 0 0.0 0.0 0.00 0.03 0.03 93 1021.5
20260503041004 12 0 0.0 0.0 0.00 0.03 0.03 93 1021.5
20260503040504 12 0 0.0 0.0 0.00 0.03 0.03 93 1021.5
20260503040004 12 0 0.0 0.0 0.00 0.03 0.03 93 1021.5
20260503035504 12 0 0.0 0.0 0.00 0.03 0.03 93 1021.6
20260503035004 12 0 0.0 0.0 0.00 0.03 0.03 93 1021.7
20260503034504 12 0 0.0 0.0 0.00 0.03 0.03 93 1021.7
20260503034004 12 0 0.0 0.0 0.00 0.03 0.03 93 1021.5
20260503033525 12 0 0.0 0.0 0.00 0.03 0.03 93 1021.5
20260503033004 12 0 0.0 0.0 0.00 0.03 0.03 92 1021.5
20260503032504 12 0 0.0 0.0 0.00 0.03 0.03 92 1021.4
20260503032004 13 0 0.0 0.0 0.00 0.03 0.03 92 1021.5
20260503031504 13 0 0.0 0.0 0.00 0.03 0.03 92 1021.3
20260503031004 13 0 0.0 0.0 0.00 0.03 0.03 92 1021.3
20260503030525 13 0 0.0 0.0 0.00 0.03 0.03 92 1021.4
20260503030004 13 0 0.0 0.0 0.00 0.03 0.03 91 1021.4
20260503025504 13 0 0.0 0.0 0.00 0.03 0.03 91 1021.3
20260503025004 13 0 0.0 0.0 0.00 0.03 0.03 91 1021.3
20260503024504 13 0 0.0 0.0 0.00 0.03 0.03 91 1021.3
20260503024004 13 0 0.0 0.0 0.00 0.03 0.03 90 1021.1
20260503023525 13 0 0.0 0.0 0.00 0.03 0.03 90 1021.0
20260503023004 13 0 0.0 0.0 0.00 0.03 0.03 90 1021.1
20260503022504 13 0 0.0 0.0 0.00 0.03 0.03 89 1021.0
20260503022004 14 0 0.0 0.0 0.00 0.03 0.03 89 1020.9
20260503021504 14 0 0.0 0.0 0.00 0.03 0.03 88 1020.9
20260503021004 14 0 0.0 0.0 0.00 0.03 0.03 88 1020.9
20260503020504 15 0 0.0 0.0 0.00 0.03 0.03 87 1020.8
20260503020004 15 0 0.0 0.0 0.00 0.03 0.03 87 1020.7
20260503015504 15 0 0.0 0.0 0.00 0.05 0.03 86 1020.7
20260503015004 15 0 0.0 0.0 0.00 0.05 0.03 86 1020.6
20260503014525 15 0 0.0 0.0 0.00 0.08 0.03 85 1020.6